E-ST@R-II

Last updated on Dec. 9, 2021, 12:02 a.m. UTC

1 41459U 16025D   21342.52328834  .00005912  00000+0  28154-3 0  9993
2 41459  98.1645 129.5195 0156218 195.1139 164.5357 15.09366116308664
UTC
Height (km)
Latitude
Longitude
Inclination
Orbital Period
UTC large
Height (km)
Speed (km/s)
/
Latitude / Longitude
Inclination (degrees)
Orbital Period (minutes)
Azimuth
Elevation
Range (km)
Doppler Factor
iOS Compass Heading
iOS Angle